Time,TemperatureF,DewpointF,PressureIn,WindDirection,WindDirectionDegrees,WindSpeedMPH,WindSpeedGustMPH,Humidity,HourlyPrecipIn,Conditions,Clouds,dailyrainin,SoftwareType,DateUTC
2013-08-13 00:00:00,73.0,-99.9,-100.00,ESE,102,4.0,5.0,-999,-99.99,,,-99.99,,2013-08-13 05:00:00,
2013-08-13 00:52:00,73.0,-99.9,-100.00,ESE,102,4.0,5.0,-999,-99.99,,,-99.99,,2013-08-13 05:52:00,
2013-08-13 02:42:00,69.0,-99.9,-100.00,SE,136,2.0,6.0,-999,-99.99,,,-99.99,,2013-08-13 07:42:00,
2013-08-13 02:52:00,69.0,-99.9,-100.00,SE,136,2.0,6.0,-999,-99.99,,,-99.99,,2013-08-13 07:52:00,
2013-08-13 06:40:00,64.0,-99.9,-100.00,NE,43,2.0,6.0,-999,-99.99,,,-99.99,,2013-08-13 11:40:00,
2013-08-13 06:42:00,66.0,-99.9,-100.00,ENE,62,5.0,5.0,-999,-99.99,,,-99.99,,2013-08-13 11:42:00,
2013-08-13 06:52:00,66.0,-99.9,-100.00,ENE,62,5.0,5.0,-999,-99.99,,,-99.99,,2013-08-13 11:52:00,
2013-08-13 07:22:00,64.0,-99.9,-100.00,NE,43,2.0,6.0,-999,-99.99,,,-99.99,,2013-08-13 12:22:00,
2013-08-13 07:32:00,64.0,-99.9,-100.00,NE,43,2.0,6.0,-999,-99.99,,,-99.99,,2013-08-13 12:32:00,
2013-08-13 09:42:00,72.0,-99.9,-100.00,SE,125,11.0,11.0,-999,-99.99,,,-99.99,,2013-08-13 14:42:00,
2013-08-13 09:50:00,76.0,-99.9,-100.00,NNE,14,1.0,8.0,-999,-99.99,,,-99.99,,2013-08-13 14:50:00,
2013-08-13 09:52:00,74.0,-99.9,-100.00,SSE,149,7.0,10.0,-999,-99.99,,,-99.99,,2013-08-13 14:52:00,
2013-08-13 10:02:00,74.0,-99.9,-100.00,SSE,149,7.0,10.0,-999,-99.99,,,-99.99,,2013-08-13 15:02:00,
2013-08-13 10:11:00,74.0,-99.9,-100.00,SSE,149,7.0,10.0,-999,-99.99,,,-99.99,,2013-08-13 15:11:00,
2013-08-13 10:44:00,76.0,-99.9,-100.00,NNE,14,1.0,8.0,-999,-99.99,,,-99.99,,2013-08-13 15:44:00,
2013-08-13 11:30:00,81.0,-99.9,-100.00,SE,134,6.0,6.0,-999,-99.99,,,-99.99,,2013-08-13 16:30:00,
2013-08-13 12:27:00,81.0,-99.9,-100.00,SE,134,6.0,6.0,-999,-99.99,,,-99.99,,2013-08-13 17:27:00,
2013-08-13 15:30:00,92.0,-99.9,-100.00,NE,46,7.0,9.0,-999,-99.99,,,-99.99,,2013-08-13 20:30:00,
2013-08-13 16:24:00,92.0,-99.9,-100.00,NE,46,7.0,9.0,-999,-99.99,,,-99.99,,2013-08-13 21:24:00,
2013-08-13 19:22:00,87.0,-99.9,-100.00,NNE,32,13.0,13.0,-999,-99.99,,,-99.99,,2013-08-14 00:22:00,
2013-08-13 19:42:00,87.0,-99.9,-100.00,NNE,12,6.0,11.0,-999,-99.99,,,-99.99,,2013-08-14 00:42:00,
2013-08-13 20:11:00,88.0,-99.9,-100.00,ENE,68,6.0,13.0,-999,-99.99,,,-99.99,,2013-08-14 01:11:00,
2013-08-13 20:30:00,83.0,-99.9,-100.00,NNE,23,7.0,11.0,-999,-99.99,,,-99.99,,2013-08-14 01:30:00,
2013-08-13 21:22:00,83.0,-99.9,-100.00,NNE,23,7.0,11.0,-999,-99.99,,,-99.99,,2013-08-14 02:22:00,
2013-08-13 22:53:00,79.0,-99.9,-100.00,NE,46,6.0,8.0,-999,-99.99,,,-99.99,,2013-08-14 03:53:00,
2013-08-13 23:12:00,77.0,-99.9,-100.00,NE,48,4.0,8.0,-999,-99.99,,,-99.99,,2013-08-14 04:12:00,
2013-08-13 23:23:00,77.0,-99.9,-100.00,NE,48,4.0,8.0,-999,-99.99,,,-99.99,,2013-08-14 04:23:00,